Wetbulb
76.57 75.81 74.54 71.93 62.27 59.17 55.64 58.29 62.72 60.97 61.70 65.04 65.16 63.61 62.90 64.69 61.93 57.00 69.51 70.78 69.86 70.99 73.35 75.50 77.89 77.08 76.54 76.75 76.40 76.92 77.15 77.46 76.90 76.57 76.82 77.29 77.11 77.05 76.87 77.06 77.14 77.19 76.56 76.15 75.48 75.70 76.53 77.31 77.17
75.51 75.23 73.27 67.80 58.17 53.22 55.27 61.41 60.62 61.97 63.58 64.74 65.30 64.92 63.18 62.20 66.78 67.74 67.83 70.56 71.65 71.57 72.09 74.70 77.77 77.32 76.78 76.85 76.54 77.61 77.21 76.85 76.82 76.85 77.07 77.11 77.05 76.87 77.23 76.92 77.36 77.17 77.25 76.43 76.40 76.34 77.25 77.16 77.08
76.25 75.34 67.64 63.50 58.26 52.68 54.70 60.78 61.61 63.26 65.16 64.84 63.10 64.60 64.08 63.12 67.33 67.69 69.35 70.89 72.53 71.39 72.72 75.16 78.40 78.14 77.06 77.14 77.34 77.69 77.07 76.80 76.75 77.05 76.97 77.13 76.73 76.54 77.03 76.77 77.29 77.00 76.86 77.56 76.70 77.22 77.27 76.83 76.68
73.77 71.09 68.84 60.30 56.10 59.90 60.18 61.83 63.51 63.57 65.15 66.09 63.75 60.64 64.39 67.24 67.27 69.02 70.67 72.28 72.97 72.12 74.04 76.90 78.29 77.61 77.48 77.43 77.40 77.10 77.24 77.10 77.07 76.53 77.16 76.56 76.62 76.59 76.81 76.87 77.14 76.95 77.01 76.78 76.93 76.68 76.79 76.45 76.18
72.28 67.97 60.96 57.21 57.58 61.38 63.19 64.51 64.70 63.11 63.63 64.26 64.16 60.03 61.68 66.74 68.73 70.63 71.46 72.34 71.73 72.31 74.49 75.91 78.30 78.59 78.21 77.45 77.38 77.32 77.22 76.83 76.47 76.72 76.89 76.78 76.48 76.17 76.86 76.95 77.15 76.82 76.87 76.84 76.98 76.68 76.43 76.12 75.73
63.44 64.51 56.27 52.87 57.19 62.14 64.13 65.27 64.98 64.08 63.83 63.79 61.53 60.61 62.26 67.64 68.91 70.64 71.90 71.81 72.97 72.39 74.21 75.37 77.61 78.10 77.85 77.47 77.39 77.19 77.00 76.58 76.58 76.47 76.40 76.64 76.40 76.31 77.17 76.76 76.81 76.54 77.07 76.79 76.29 76.06 76.04 75.68 74.90
62.80 59.98 56.70 55.94 57.80 59.72 63.04 66.43 63.91 63.79 63.72 63.62 64.42 59.85 62.85 66.19 69.55 70.46 71.61 72.75 73.15 72.81 73.07 74.23 74.72 75.88 77.55 78.25 77.49 77.32 77.03 76.47 76.39 76.28 76.37 76.52 76.41 76.09 76.76 76.92 77.04 77.21 77.01 76.70 76.20 75.79 75.95 75.70 75.43
66.15 63.53 57.49 57.68 57.11 58.03 63.23 64.60 66.49 64.88 63.74 67.49 65.88 59.04 60.47 65.76 70.01 70.87 71.50 72.16 72.37 72.36 72.42 73.36 74.06 74.21 74.29 74.75 77.30 77.12 76.92 76.64 76.36 76.77 76.28 76.75 76.72 76.79 76.70 77.65 77.71 77.35 77.21 76.57 76.09 75.81 75.65 75.45 75.12
65.67 59.82 56.62 58.53 58.46 59.60 63.48 62.37 65.92 67.99 65.19 66.16 67.03 64.09 65.57 69.03 69.73 69.28 69.03 69.75 70.57 70.80 71.12 71.46 72.35 72.49 72.12 73.18 75.08 77.15 77.25 77.13 77.24 76.72 76.86 77.03 73.99 74.31 75.12 76.74 77.59 77.29 76.84 76.57 75.90 75.51 75.12 74.87 75.00
63.10 59.22 60.38 63.19 62.96 60.84 63.11 63.44 64.44 64.62 64.33 64.59 63.17 65.82 68.22 68.11 67.51 66.81 66.95 67.82 68.56 68.67 69.77 71.39 71.69 71.79 72.25 74.87 74.32 74.37 75.11 74.69 74.31 74.37 73.57 74.22 74.21 73.51 76.00 75.45 77.61 77.46 76.70 76.54 76.31 75.87 75.68 75.12 72.41
64.88 59.77 63.91 64.64 65.14 64.56 63.59 63.59 65.49 63.78 61.48 62.95 61.12 63.49 65.30 65.71 66.73 66.40 67.22 67.94 68.69 69.77 70.00 71.10 71.06 72.20 72.42 73.04 73.93 73.97 74.23 73.92 73.73 74.39 74.23 74.02 74.43 73.21 73.70 73.84 74.71 74.03 76.57 73.67 74.57 74.00 73.41 73.68 73.36
59.83 63.05 65.48 66.30 67.04 65.16 63.89 65.04 63.80 64.20 63.92 65.61 64.38 64.45 64.58 65.32 65.54 66.01 67.05 67.62 68.80 69.11 70.63 71.25 72.57 72.70 72.75 73.32 73.54 73.59 73.70 73.94 73.10 74.04 73.57 73.72 72.80 72.91 72.34 72.91 73.42 74.71 74.05 74.21 71.95 71.71 73.11 72.40 73.88
61.12 62.17 65.55 67.45 67.45 65.97 66.71 63.05 63.60 63.70 65.27 65.30 64.56 63.93 63.58 63.97 64.45 65.39 67.30 67.22 67.62 68.22 69.64 70.68 71.75 71.70 72.82 72.25 72.86 73.62 73.59 73.37 73.37 74.19 74.74 74.05 72.77 72.27 72.18 72.51 72.41 71.09 72.08 72.77 72.12 72.37 72.12 71.64 73.19
64.10 62.39 61.23 63.29 66.40 66.48 63.90 63.55 64.26 63.98 64.54 63.33 63.08 62.62 63.02 63.17 63.20 64.00 65.46 66.12 66.88 67.68 68.86 71.14 71.18 70.83 72.12 73.15 73.15 72.75 74.37 72.92 74.03 73.95 74.39 73.70 73.65 73.12 73.16 72.28 72.41 72.31 72.36 72.29 72.28 72.84 71.19 70.73 69.66
63.40 58.96 59.97 62.78 63.55 62.44 62.84 59.14 61.96 64.28 64.31 62.64 62.81 62.94 63.42 63.56 64.11 63.06 64.85 66.09 67.45 67.44 69.34 71.24 71.27 71.73 73.25 73.79 72.85 72.45 73.42 73.61 72.68 72.96 74.01 75.59 73.97 73.58 72.83 72.71 71.59 70.77 72.21 72.74 72.80 71.02 70.56 67.95 69.29
59.73 59.92 55.96 60.85 61.54 62.32 60.36 55.02 62.42 65.06 62.93 61.48 62.43 62.86 63.39 63.60 63.96 64.89 65.13 65.83 68.03 68.42 69.51 71.94 73.70 73.51 73.52 72.45 72.35 72.10 72.97 73.38 73.93 73.39 75.52 74.67 74.24 74.06 73.90 72.80 71.67 71.35 71.24 72.51 73.51 70.67 68.84 67.77 66.97
57.14 52.17 53.69 56.76 62.00 62.31 60.45 56.91 61.78 66.16 63.43 61.34 62.16 63.31 63.71 63.40 64.24 65.11 66.22 66.93 68.86 69.75 70.67 71.07 72.90 72.08 72.80 71.98 72.46 73.09 73.46 73.12 72.16 74.19 75.22 75.54 74.62 74.22 73.11 73.76 72.03 72.62 72.64 72.24 72.58 71.04 69.57 71.24 71.22
51.74 53.03 54.86 54.36 59.28 61.82 58.92 58.52 60.92 65.12 64.74 62.65 62.64 63.40 64.17 64.28 64.47 66.23 67.64 68.76 69.94 70.62 70.93 71.14 72.06 72.30 72.41 72.14 73.62 73.19 72.55 73.84 72.55 74.31 74.37 75.20 74.21 74.68 73.50 73.60 72.74 72.68 71.58 72.40 71.62 71.41 72.63 72.08 71.81
54.93 55.00 54.82 57.62 60.26 58.13 58.40 59.81 60.71 62.40 63.95 63.29 62.97 63.33 63.93 64.70 66.75 67.47 68.54 69.21 69.65 70.81 70.40 69.92 70.40 72.23 72.49 72.25 71.13 71.78 71.60 72.33 72.65 72.67 75.22 73.66 73.57 74.02 72.42 73.48 72.81 73.04 71.90 72.15 72.57 72.45 70.97 71.53 70.81
49.50 48.78 51.20 57.04 58.78 55.83 59.40 57.96 60.34 62.03 62.70 62.17 64.21 63.99 64.37 65.11 65.92 66.97 67.86 68.77 68.73 69.37 70.58 70.00 71.20 71.72 71.66 71.48 71.63 71.75 72.25 71.76 71.18 70.48 69.06 72.78 74.83 74.93 74.22 73.63 73.14 72.70 72.89 72.18 71.63 70.82 70.22 70.49 72.03
47.00 44.65 48.10 50.71 57.20 58.05 58.67 55.85 55.42 58.34 60.35 63.50 64.57 66.04 66.08 65.68 65.71 66.33 67.10 67.29 68.00 68.50 69.86 70.54 72.33 71.75 71.90 71.06 72.06 72.32 71.69 71.30 69.37 68.25 69.15 70.75 71.32 74.64 75.45 73.07 73.72 72.65 73.29 71.88 71.80 72.05 70.52 69.12 70.27
41.62 51.08 51.20 50.82 46.99 45.79 53.86 48.67 53.65 55.96 58.09 59.80 61.68 65.42 66.14 66.38 67.07 67.07 66.97 66.17 66.97 69.55 71.19 70.73 72.66 71.75 72.20 72.64 71.95 71.34 69.76 68.45 70.07 70.30 69.01 70.27 71.10 71.05 75.14 74.60 73.92 73.58 73.97 72.33 71.93 73.02 71.69 70.59 68.97
47.47 52.12 51.20 50.89 46.36 43.44 47.72 50.51 51.11 56.19 54.48 57.40 60.07 63.24 66.63 67.19 67.24 67.11 67.07 66.78 67.43 70.74 71.55 70.97 72.83 72.42 72.27 73.28 72.83 72.37 71.05 71.03 70.55 69.31 69.26 70.03 71.48 72.07 74.69 75.36 74.99 73.25 73.70 72.91 72.48 72.19 72.38 71.93 69.71
52.02 49.95 50.14 48.21 44.56 40.19 45.64 49.18 47.81 51.87 54.75 58.47 61.41 63.02 63.98 66.98 67.58 67.72 68.06 67.31 67.60 70.67 72.09 71.25 72.33 71.51 72.03 71.91 73.00 73.74 71.87 70.09 69.31 68.07 66.30 67.98 72.06 73.32 74.57 75.24 75.33 74.73 73.44 73.26 73.12 72.97 73.14 72.26 72.03
50.72 46.71 40.22 40.69 39.80 42.24 47.77 48.17 48.08 56.01 58.81 59.40 58.68 58.85 63.18 66.80 67.10 66.93 66.93 66.67 66.89 69.66 71.12 71.44 71.27 71.99 72.81 71.89 72.87 73.50 73.95 71.44 69.88 68.79 69.87 70.02 71.87 72.62 73.78 74.89 74.72 73.94 74.53 73.71 74.09 73.32 72.42 72.71 71.94
48.23 47.14 40.00 36.58 37.83 41.11 47.88 44.35 49.36 56.91 58.21 57.57 60.26 60.75 62.83 62.26 67.52 67.34 67.38 67.20 67.25 69.04 70.23 72.19 70.88 72.08 74.00 73.62 73.70 73.91 73.89 73.98 72.85 71.46 71.56 72.08 72.32 72.56 73.54 74.53 74.63 73.71 73.67 74.52 74.00 73.76 73.06 73.63 73.35
47.80 43.75 47.17 41.50 45.32 42.06 47.61 49.45 53.01 56.67 56.44 61.21 62.62 65.02 65.21 65.91 67.11 67.56 67.68 67.73 67.61 67.67 69.56 70.99 72.15 72.15 73.36 74.12 74.92 75.00 75.05 74.44 74.57 73.20 72.71 71.93 71.89 73.69 74.20 74.51 74.37 73.23 73.06 74.43 74.17 73.58 73.06 72.78 73.34
49.27 55.41 43.50 42.65 38.08 37.28 45.20 46.81 48.09 53.14 56.89 61.15 62.17 64.67 65.94 67.35 67.15 67.86 67.45 67.40 67.77 68.00 69.17 71.49 72.61 73.09 73.76 73.71 74.24 75.79 75.60 75.64 74.94 74.22 74.26 74.08 73.47 72.22 73.74 74.27 74.14 74.17 74.05 74.09 74.39 72.63 73.07 72.72 72.96
48.26 46.28 44.45 43.22 43.59 39.30 39.92 46.04 54.69 56.00 58.54 60.47 63.15 65.34 66.28 65.70 65.85 64.77 67.59 68.86 67.56 68.75 70.08 71.42 72.61 72.94 73.52 74.54 74.18 74.37 75.73 76.24 75.49 75.42 75.61 75.71 73.62 73.38 74.35 74.19 74.23 74.17 74.45 73.94 74.31 72.71 73.05 72.40 72.38
48.48 44.89 45.66 40.30 40.93 41.75 42.61 47.58 56.45 56.64 61.87 63.89 64.71 65.70 66.47 65.19 64.91 63.87 65.84 67.44 69.08 66.69 64.34 65.35 72.47 73.35 74.31 74.63 74.92 74.97 75.20 75.37 75.86 75.24 74.87 75.84 74.29 74.06 72.87 73.94 73.84 74.69 73.84 74.05 73.81 72.76 72.99 72.27 71.83
MSLP
1009.33 1009.66 1009.97 1009.95 1010.32 1009.25 1008.67 1008.30 1007.87 1007.56 1007.53 1007.56 1007.75 1008.46 1009.88 1010.45 1011.25 1012.90 1013.43 1013.54 1013.58 1014.12 1014.59 1014.96 1015.27 1015.66 1015.96 1016.26 1016.52 1016.65 1016.75 1016.89 1017.03 1017.14 1017.25 1017.40 1017.58 1017.69 1017.81 1017.63 1017.63 1017.71 1017.82 1017.91 1018.11 1018.24 1018.40 1018.50 1018.66
1009.13 1009.60 1010.09 1009.55 1009.32 1008.37 1008.00 1007.30 1007.25 1007.45 1007.78 1008.09 1008.59 1009.49 1010.48 1011.74 1011.90 1012.67 1013.35 1013.39 1013.40 1013.88 1014.55 1015.02 1015.33 1015.76 1016.12 1016.39 1016.69 1016.74 1016.94 1017.21 1017.36 1017.33 1017.40 1017.53 1017.77 1017.80 1017.76 1017.82 1017.81 1017.95 1018.11 1018.29 1018.41 1018.54 1018.72 1018.85 1018.95
1009.00 1009.53 1009.85 1009.02 1007.65 1007.18 1007.12 1006.83 1006.78 1007.46 1007.82 1008.01 1009.31 1010.22 1011.16 1012.39 1012.58 1012.69 1012.77 1013.25 1013.29 1013.84 1014.50 1015.13 1015.49 1015.87 1016.29 1016.61 1016.79 1016.90 1017.15 1017.44 1017.52 1017.57 1017.64 1017.72 1017.92 1017.94 1017.92 1017.98 1018.04 1018.23 1018.38 1018.50 1018.63 1018.77 1018.95 1019.03 1019.15
1008.74 1009.17 1009.23 1007.74 1006.42 1006.01 1005.86 1006.39 1006.22 1006.87 1007.58 1008.12 1009.52 1011.22 1012.44 1013.27 1012.66 1012.29 1012.84 1013.30 1013.50 1013.98 1014.67 1015.19 1015.63 1015.96 1016.35 1016.73 1016.93 1017.09 1017.31 1017.50 1017.65 1017.79 1017.84 1017.98 1018.11 1018.14 1018.22 1018.17 1018.22 1018.38 1018.53 1018.71 1018.82 1018.96 1019.12 1019.20 1019.45
1008.74 1008.98 1008.56 1006.90 1005.61 1005.12 1005.02 1005.18 1005.39 1006.14 1007.16 1008.33 1009.37 1011.54 1012.83 1013.33 1013.13 1012.74 1013.15 1013.29 1013.69 1014.31 1014.82 1015.29 1015.72 1016.01 1016.33 1016.73 1016.97 1017.17 1017.35 1017.65 1017.84 1017.92 1017.98 1018.16 1018.22 1018.39 1018.39 1018.40 1018.45 1018.55 1018.67 1018.78 1018.96 1019.13 1019.28 1019.33 1019.57
1010.04 1010.03 1008.87 1006.58 1005.07 1004.32 1004.14 1004.36 1004.85 1005.80 1007.00 1008.32 1009.88 1011.40 1013.09 1013.46 1013.40 1013.14 1013.11 1013.40 1013.50 1014.33 1014.75 1015.35 1015.76 1016.12 1016.34 1016.71 1016.97 1017.21 1017.39 1017.67 1017.84 1018.04 1018.14 1018.25 1018.33 1018.44 1018.47 1018.55 1018.62 1018.74 1018.79 1018.95 1019.15 1019.28 1019.44 1019.51 1019.50
1011.83 1010.73 1008.59 1006.26 1004.84 1003.59 1003.24 1003.45 1004.06 1005.19 1006.39 1007.53 1008.88 1010.91 1013.15 1013.68 1013.51 1013.69 1013.41 1013.90 1014.15 1014.15 1014.83 1015.37 1015.73 1016.06 1016.27 1016.57 1016.86 1017.16 1017.45 1017.76 1017.96 1018.13 1018.26 1018.34 1018.37 1018.50 1018.52 1018.61 1018.61 1018.81 1018.93 1019.11 1019.28 1019.46 1019.59 1019.54 1019.45
1012.21 1010.84 1008.15 1005.87 1004.42 1003.42 1002.84 1002.83 1003.33 1004.50 1005.74 1007.22 1008.36 1010.35 1012.38 1012.90 1013.48 1013.86 1013.97 1014.13 1014.43 1014.51 1014.51 1015.19 1015.67 1015.99 1016.32 1016.65 1016.91 1017.20 1017.47 1017.73 1017.95 1018.07 1018.24 1018.30 1018.39 1018.46 1018.55 1018.65 1018.58 1018.62 1018.85 1019.18 1019.48 1019.58 1019.52 1019.47 1019.62
1012.99 1010.96 1007.92 1004.88 1003.48 1002.84 1002.51 1002.90 1003.47 1004.25 1005.85 1006.50 1007.66 1009.01 1010.79 1012.25 1013.41 1014.04 1014.51 1014.86 1014.88 1014.79 1014.69 1014.91 1015.47 1015.92 1016.31 1016.69 1016.92 1017.10 1017.33 1017.54 1017.74 1017.95 1018.07 1018.20 1018.46 1018.63 1018.79 1018.76 1018.58 1018.54 1018.79 1019.08 1019.46 1019.71 1019.55 1019.48 1019.41
1010.87 1009.66 1005.58 1003.00 1002.11 1002.07 1002.16 1002.76 1003.09 1004.12 1005.85 1006.84 1008.48 1009.70 1011.24 1012.13 1012.93 1013.73 1014.49 1014.73 1014.43 1014.34 1014.62 1014.82 1014.98 1015.51 1015.90 1016.17 1016.74 1017.07 1017.23 1017.39 1017.60 1017.86 1017.92 1018.04 1018.29 1018.74 1018.85 1019.02 1018.85 1018.70 1018.84 1019.06 1019.43 1019.55 1019.31 1019.16 1019.29
1009.60 1007.79 1003.06 1002.09 1001.23 1001.49 1001.89 1002.41 1002.79 1004.36 1006.24 1007.18 1008.71 1010.23 1011.34 1012.02 1012.70 1013.27 1013.45 1013.49 1013.39 1013.71 1014.03 1014.39 1014.78 1015.02 1015.35 1015.80 1016.39 1016.86 1017.13 1017.29 1017.42 1017.61 1017.67 1017.75 1017.96 1018.41 1018.79 1019.03 1018.69 1018.68 1018.78 1018.98 1019.21 1019.28 1019.12 1019.09 1019.56
1007.30 1004.98 1002.13 1001.41 1001.03 1001.56 1001.73 1002.04 1002.64 1003.89 1005.96 1007.31 1008.86 1010.08 1011.14 1011.95 1012.30 1012.69 1012.96 1012.87 1012.69 1012.95 1013.37 1014.20 1014.28 1014.75 1015.13 1015.57 1016.19 1016.55 1017.03 1017.10 1017.20 1017.22 1017.25 1017.48 1017.77 1018.24 1018.87 1018.98 1018.99 1018.61 1018.69 1018.89 1019.19 1019.45 1019.36 1019.89 1019.25
1006.78 1005.39 1002.94 1001.42 1000.94 1001.31 1001.60 1002.86 1003.38 1005.20 1006.67 1008.00 1009.36 1010.36 1011.20 1011.52 1011.88 1012.25 1012.42 1012.42 1012.48 1012.85 1013.48 1013.58 1013.67 1014.73 1015.13 1015.51 1016.11 1016.33 1016.65 1016.70 1016.70 1016.89 1016.97 1017.21 1017.45 1017.98 1018.42 1018.14 1018.89 1018.64 1018.78 1018.89 1019.37 1019.57 1019.96 1019.95 1019.50
1005.19 1004.03 1005.73 1004.56 1001.99 1001.86 1002.47 1003.26 1003.89 1005.85 1006.81 1008.40 1009.42 1010.32 1010.95 1011.29 1011.57 1012.03 1012.13 1012.08 1012.33 1012.50 1013.02 1013.37 1013.84 1014.43 1014.89 1015.45 1015.76 1015.94 1016.12 1016.44 1016.59 1017.01 1016.79 1016.96 1017.25 1017.94 1015.77 1018.63 1018.68 1018.65 1018.87 1019.11 1019.59 1019.41 1019.95 1019.80 1019.15
1003.73 1004.63 1004.42 1004.60 1004.45 1002.81 1002.59 1003.76 1004.85 1005.42 1006.24 1007.90 1009.21 1009.95 1010.59 1010.95 1011.35 1011.56 1011.54 1011.66 1011.81 1012.13 1012.31 1013.30 1013.74 1014.30 1014.74 1015.15 1015.30 1015.73 1016.04 1016.24 1016.33 1016.59 1016.63 1016.89 1017.02 1017.30 1017.95 1018.19 1018.41 1018.47 1018.70 1018.95 1019.27 1019.86 1019.94 1019.13 1019.11
1003.07 1004.48 1005.09 1004.39 1005.10 1003.13 1002.61 1004.70 1004.61 1005.56 1005.93 1007.10 1008.29 1009.18 1009.70 1010.20 1010.56 1010.82 1010.79 1011.07 1011.15 1011.41 1011.78 1012.39 1013.26 1013.78 1014.37 1014.74 1015.25 1015.62 1015.75 1015.90 1015.94 1016.44 1016.52 1016.62 1017.06 1017.35 1017.77 1018.29 1018.30 1018.30 1018.56 1018.76 1018.78 1019.41 1019.30 1019.20 1019.31
1003.41 1004.89 1004.27 1004.50 1003.62 1004.25 1003.54 1003.58 1003.11 1004.21 1005.76 1006.39 1007.02 1008.05 1008.68 1009.11 1009.48 1009.52 1009.61 1010.11 1010.24 1010.41 1010.93 1011.81 1012.68 1013.38 1014.13 1014.77 1015.17 1015.48 1015.50 1015.64 1015.94 1016.07 1016.28 1016.44 1016.67 1017.06 1017.32 1017.69 1018.09 1018.21 1018.47 1018.78 1018.73 1018.94 1019.08 1019.29 1019.46
1002.47 1004.42 1004.29 1004.01 1002.98 1003.28 1003.41 1003.35 1003.20 1004.23 1004.70 1005.53 1006.32 1006.90 1007.47 1007.90 1008.12 1008.17 1008.39 1008.59 1009.07 1009.46 1010.32 1011.11 1012.13 1012.95 1013.88 1014.54 1015.14 1015.51 1015.83 1015.91 1015.97 1015.93 1016.21 1016.67 1016.93 1017.08 1017.32 1017.30 1017.71 1018.09 1018.67 1018.78 1018.77 1018.95 1019.15 1019.25 1019.31
1001.04 1002.44 1002.91 1002.15 1000.70 1001.93 1002.96 1004.83 1007.46 1006.37 1006.05 1005.53 1005.54 1005.94 1006.11 1006.32 1006.64 1007.08 1007.32 1007.62 1008.21 1009.02 1009.84 1010.60 1011.58 1012.62 1013.56 1014.48 1015.20 1015.70 1016.12 1016.03 1016.05 1016.02 1015.98 1016.49 1016.46 1016.94 1017.21 1017.35 1017.66 1017.84 1018.46 1018.64 1018.77 1018.91 1019.17 1019.24 1019.34
1000.23 1000.61 1000.98 1001.10 1000.17 999.89 1002.42 1005.47 1005.93 1005.92 1004.69 1004.24 1004.39 1004.58 1004.79 1005.20 1005.53 1005.96 1006.62 1006.97 1007.53 1008.47 1009.30 1010.20 1011.08 1012.21 1013.06 1013.82 1014.59 1015.18 1015.47 1015.92 1016.27 1016.57 1016.99 1016.79 1016.55 1016.71 1016.83 1017.07 1017.65 1017.67 1018.31 1018.46 1018.64 1018.86 1019.16 1019.26 1019.15
999.78 999.96 999.66 999.63 999.62 1000.03 1002.51 1005.52 1006.68 1005.05 1002.22 1002.53 1003.03 1002.91 1003.41 1003.69 1004.31 1004.95 1005.64 1006.19 1006.87 1007.86 1008.87 1009.79 1010.66 1011.64 1012.55 1013.38 1014.33 1014.98 1015.37 1015.90 1016.27 1016.64 1016.69 1016.87 1017.04 1016.71 1016.40 1016.72 1017.21 1017.62 1018.01 1018.26 1018.53 1018.75 1018.79 1019.08 1018.96
999.41 999.01 999.04 999.25 999.89 1000.68 1000.76 1005.07 1005.86 1004.57 1003.08 1001.98 1001.51 1001.96 1002.01 1002.36 1003.00 1003.79 1004.58 1005.40 1006.14 1007.21 1008.17 1009.29 1010.21 1011.16 1012.03 1012.93 1013.75 1014.36 1014.96 1015.61 1015.53 1015.88 1016.30 1016.10 1016.31 1017.03 1016.21 1016.45 1016.87 1017.17 1017.55 1017.93 1018.15 1018.46 1018.43 1018.73 1018.81
999.01 998.76 999.18 999.54 1000.13 1000.98 1001.00 1003.59 1004.18 1003.72 1003.21 1001.42 1000.31 1000.09 1000.54 1001.05 1001.68 1002.59 1003.46 1004.31 1005.22 1006.39 1007.49 1008.62 1009.66 1010.57 1011.40 1012.32 1012.95 1013.55 1014.24 1014.62 1015.10 1015.98 1016.14 1016.33 1016.69 1016.90 1015.98 1016.16 1016.34 1016.88 1017.17 1017.50 1017.68 1018.15 1018.33 1018.46 1018.63
998.76 999.02 999.33 999.71 1000.63 1002.14 1001.41 1002.38 1003.76 1003.28 1001.97 1000.86 1000.04 999.65 999.36 1000.19 1000.92 1001.68 1002.53 1003.57 1004.58 1005.73 1006.97 1008.08 1009.10 1010.03 1010.69 1011.49 1012.30 1012.88 1013.63 1014.28 1014.95 1015.70 1015.89 1016.23 1016.12 1015.79 1015.93 1015.73 1015.88 1016.29 1016.77 1017.12 1017.22 1017.65 1017.89 1017.99 1018.25
998.90 999.42 1000.44 1001.16 1001.89 1002.59 1001.56 1001.72 1001.31 1000.98 1000.34 1000.10 999.31 998.82 999.04 999.51 1000.19 1001.11 1002.14 1002.96 1003.93 1005.05 1006.41 1007.71 1008.81 1009.82 1010.44 1011.11 1011.81 1012.43 1013.04 1013.87 1014.34 1014.53 1014.68 1015.21 1015.18 1015.11 1015.31 1015.36 1015.49 1015.97 1016.19 1016.54 1016.78 1017.20 1017.48 1017.78 1018.05
999.08 999.80 1001.10 1001.98 1002.41 1001.83 1001.18 1001.07 1000.50 999.52 999.11 998.86 998.67 998.72 998.84 999.03 999.62 1000.39 1001.15 1002.24 1003.47 1004.78 1006.05 1007.31 1008.34 1009.29 1010.01 1010.84 1011.34 1011.81 1012.55 1012.98 1013.69 1013.85 1014.06 1014.09 1014.56 1015.37 1015.49 1015.73 1015.05 1015.09 1015.73 1016.17 1016.54 1017.09 1017.27 1017.47 1017.68
998.99 999.80 1000.15 1001.43 1001.66 1002.36 1001.73 1001.20 1000.14 999.85 999.39 999.41 999.16 999.35 999.27 999.10 999.85 1000.11 1001.12 1002.10 1003.28 1004.51 1005.75 1007.11 1008.37 1009.09 1009.55 1009.97 1010.86 1011.31 1011.82 1012.35 1012.61 1012.93 1013.29 1013.48 1014.45 1015.04 1015.09 1015.27 1015.43 1015.23 1015.27 1015.80 1016.48 1016.83 1017.04 1017.19 1017.31
998.97 999.48 1000.34 1001.74 1003.16 1003.09 1003.27 1001.95 1001.41 1000.62 1000.40 1000.13 1000.14 1000.22 1000.21 1000.26 999.31 1000.71 1002.77 1003.57 1003.49 1004.55 1005.50 1006.67 1007.66 1008.37 1008.97 1009.44 1010.03 1010.60 1011.10 1011.65 1012.09 1012.45 1012.61 1012.70 1013.15 1014.26 1014.39 1014.83 1014.87 1015.31 1015.38 1015.65 1016.21 1016.57 1016.68 1016.89 1016.92
999.44 999.93 1000.90 1001.96 1003.01 1003.57 1003.51 1002.81 1001.29 1001.02 1000.97 1001.14 1001.29 1001.42 1001.56 1003.03 1003.55 1003.80 1004.69 1006.03 1007.62 1005.80 1005.36 1006.08 1007.08 1007.61 1008.38 1008.83 1009.30 1010.07 1010.48 1011.03 1011.63 1012.02 1012.15 1012.09 1012.35 1012.96 1013.34 1013.74 1014.03 1014.50 1015.19 1015.60 1015.88 1016.18 1016.38 1016.60 1016.67
999.47 1000.06 1000.92 1002.76 1003.32 1003.12 1003.00 1002.88 1002.19 1002.08 1001.67 1001.30 1001.31 1001.82 1002.35 1003.81 1004.99 1004.73 1004.21 1005.99 1007.84 1009.61 1007.20 1006.79 1006.84 1007.07 1007.24 1007.83 1008.44 1009.25 1009.92 1010.47 1010.98 1011.39 1011.71 1011.91 1012.04 1012.47 1012.70 1013.18 1013.64 1013.95 1014.45 1014.85 1015.26 1015.60 1015.73 1016.04 1016.12
Wind_Speed
11 8 2 1 2 2 4 4 9 7 5 13 14 15 12 10 3 4 8 7 8 11 9 8 14 15 14 13 13 12 13 12 13 12 12 11 11 10 11 10 11 14 15 16 17 14 14 13 13
7 6 1 2 3 3 4 7 8 9 8 7 13 13 9 7 7 11 7 10 7 13 9 8 13 15 15 14 13 12 12 11 11 11 10 10 9 9 11 10 13 14 15 16 16 15 12 12 13
3 5 2 4 3 3 5 8 14 15 12 5 6 8 5 6 9 10 10 10 8 14 12 10 15 15 15 14 13 12 12 10 9 10 9 11 8 8 10 10 13 14 13 15 15 13 12 12 12
4 1 3 4 12 3 8 10 12 14 13 7 12 8 5 3 3 7 13 9 6 14 14 14 16 17 16 13 13 13 11 10 9 8 8 9 7 7 9 10 11 12 14 13 14 13 11 10 10
3 2 4 4 10 8 11 14 16 15 10 14 10 6 4 2 7 13 11 8 8 14 13 13 15 15 15 14 13 12 11 9 7 6 7 6 7 4 10 10 9 11 12 12 13 11 10 7 6
0 1 3 2 9 12 13 13 15 12 14 16 11 10 4 3 1 6 9 7 14 15 13 11 15 14 14 14 12 11 10 8 7 6 6 5 6 5 9 8 9 11 12 12 11 10 9 6 1
7 2 4 4 8 5 13 14 14 16 15 12 20 8 6 6 4 2 5 6 4 15 14 10 9 12 15 12 12 11 10 8 7 7 5 4 5 4 6 9 9 10 11 11 10 9 8 6 5
5 7 7 5 7 5 9 4 17 17 14 22 15 10 12 14 8 5 6 6 6 7 14 12 9 7 6 7 12 11 10 8 8 8 7 6 7 7 6 8 8 10 10 9 8 7 6 5 3
1 4 6 5 8 6 10 11 14 17 15 10 11 14 23 18 13 8 6 3 9 9 13 13 11 8 7 6 8 11 11 10 9 7 8 6 3 4 5 7 11 11 10 9 8 6 5 5 5
5 6 12 12 8 13 14 10 12 12 15 14 20 25 23 20 13 12 8 7 7 11 15 14 13 12 10 9 6 6 6 4 5 5 6 4 4 3 5 6 11 10 10 9 8 7 8 8 2
8 8 7 13 12 16 12 11 12 21 13 19 27 24 21 18 14 15 10 9 12 14 14 15 11 10 11 7 6 3 3 3 4 7 6 5 4 3 5 3 4 4 8 3 5 5 4 3 2
9 29 13 11 10 12 7 10 6 12 14 24 23 23 19 17 16 18 16 12 10 7 13 9 8 7 7 6 6 5 3 4 4 5 7 5 3 3 4 2 3 3 3 4 4 3 5 4 6
4 12 21 2 10 15 8 11 14 22 24 24 23 21 18 15 14 9 8 7 6 7 9 12 9 6 6 6 4 4 5 4 5 4 5 4 3 4 5 2 3 4 2 3 2 1 3 6 13
10 30 31 19 8 10 8 5 14 21 27 25 23 20 18 17 15 9 9 8 8 9 9 11 13 9 8 6 6 4 4 4 3 1 4 6 5 5 4 4 4 3 3 2 4 8 5 4 3
15 15 12 13 15 4 6 6 9 24 23 26 22 19 18 17 15 14 15 14 14 10 12 16 15 11 11 8 6 4 4 3 5 6 5 6 5 4 5 4 4 4 2 3 6 7 4 2 3
8 5 2 8 16 4 11 4 5 12 25 24 23 20 21 21 21 19 20 18 17 16 17 15 15 13 9 7 5 4 3 4 5 5 5 6 6 7 6 3 4 3 3 3 2 4 2 1 1
6 4 16 11 7 7 3 9 10 10 20 23 22 20 20 20 22 22 22 22 21 18 17 14 17 15 11 7 5 4 3 2 4 5 4 6 6 6 5 4 4 4 2 3 4 2 3 1 1
5 8 10 9 5 12 9 8 2 4 12 24 22 20 19 19 23 23 21 14 18 16 19 17 15 15 12 7 5 2 1 3 4 4 4 6 3 6 4 4 4 3 3 3 2 3 1 2 3
8 15 11 12 13 20 13 18 16 23 9 14 19 20 21 22 23 20 18 17 15 14 17 12 12 16 11 9 5 2 3 3 3 2 4 8 7 7 6 4 4 4 4 4 4 3 3 3 3
8 9 8 8 15 3 16 15 21 15 8 9 14 21 22 21 20 21 21 18 14 16 19 13 15 15 12 9 7 3 4 3 3 3 5 2 6 7 7 6 5 5 3 4 3 3 2 3 4
9 6 8 4 1 3 19 9 6 9 6 12 9 20 20 22 21 19 22 15 14 16 18 14 16 17 13 11 7 3 4 3 2 2 1 1 5 5 6 6 6 6 4 4 4 5 6 3 3
6 8 9 9 6 4 5 4 6 8 10 4 5 23 20 20 19 21 20 15 17 14 17 16 17 17 13 13 10 8 5 5 4 4 3 1 6 9 6 7 6 6 5 6 5 5 3 3 3
6 10 7 8 7 5 11 7 3 2 8 11 9 12 22 22 22 23 20 20 17 17 18 17 16 17 15 13 14 9 6 4 3 4 6 6 9 13 10 6 6 6 5 7 7 5 5 4 3
10 10 8 9 2 6 10 8 5 5 10 4 7 7 10 18 20 22 20 20 15 17 17 17 15 16 15 12 9 9 9 8 5 4 5 5 6 6 9 8 6 6 6 6 5 6 7 5 3
8 2 5 8 4 5 4 7 10 15 11 10 9 7 10 17 17 18 20 20 17 20 19 17 17 15 14 13 10 9 7 12 12 9 5 6 5 4 9 10 8 5 5 5 6 6 5 5 3
8 3 4 4 3 7 8 7 3 5 9 2 6 3 3 9 18 19 21 20 19 19 19 18 18 16 14 14 12 10 9 5 8 11 7 7 6 2 5 7 9 8 6 5 6 4 4 5 5
7 6 6 2 5 7 4 2 6 11 7 5 8 7 6 8 15 19 19 18 18 13 18 16 18 16 15 13 13 11 9 8 7 8 9 8 6 8 18 12 10 9 8 7 6 5 6 5 6
6 2 9 6 3 4 3 5 3 6 7 8 8 8 8 10 14 13 9 3 15 10 14 15 18 19 18 16 13 11 12 10 7 6 8 7 7 12 12 11 10 7 7 7 7 5 5 6 5
2 6 5 2 3 3 4 3 1 5 8 8 7 6 8 19 19 16 14 18 20 3 15 15 16 17 16 15 14 12 10 10 8 7 7 7 5 10 12 11 11 10 9 7 7 7 7 7 7
3 2 1 6 9 3 5 6 3 7 10 6 7 5 8 8 9 13 14 20 22 19 7 6 7 16 17 16 14 14 9 7 8 9 8 6 6 9 11 10 10 11 10 9 10 10 8 8 9
Wind_Direction
165 173 219 199 258 132 164 155 169 141 65 65 73 83 87 45 40 159 142 166 157 131 128 141 137 135 135 126 125 122 115 109 103 96 92 86 84 85 82 85 102 99 99 105 112 120 110 112 112
162 188 315 266 223 145 78 123 107 80 117 82 70 88 56 79 73 114 123 182 152 129 143 136 140 138 137 132 137 127 119 111 105 100 96 92 88 79 87 87 103 103 107 109 110 115 114 115 109
129 204 259 210 213 109 134 119 116 120 149 113 98 39 53 96 118 150 139 175 154 141 132 140 139 140 141 145 142 131 121 118 112 105 97 89 85 88 96 99 106 107 113 112 112 109 114 113 113
212 93 269 256 106 99 119 142 131 134 129 103 108 74 75 338 323 126 151 165 155 126 128 140 148 145 146 146 138 136 133 132 122 112 103 99 91 94 99 108 110 112 115 118 119 112 109 113 113
15 339 266 266 114 128 138 149 150 146 121 129 115 102 69 339 315 130 136 154 130 121 131 140 150 150 149 153 152 144 137 136 131 125 110 109 98 88 109 118 120 120 121 122 123 120 119 121 119
94 55 349 127 91 140 146 159 150 136 140 115 102 107 92 98 353 144 147 159 132 131 137 144 145 148 150 156 156 152 148 152 144 136 131 122 112 117 121 129 130 132 128 126 124 125 124 123 114
23 342 237 307 116 111 147 158 145 144 153 144 146 105 124 179 168 174 97 59 66 141 137 143 153 159 161 161 159 161 159 160 158 154 147 145 149 142 131 136 141 133 131 130 133 133 135 153 185
3 299 320 292 100 98 121 169 141 147 158 126 135 146 163 177 168 119 76 35 315 174 147 152 152 155 157 165 171 170 171 176 181 184 175 160 178 174 162 156 153 148 142 139 139 145 162 194 233
68 296 288 158 135 139 112 90 99 125 135 166 173 143 153 151 154 138 107 160 244 181 156 159 158 160 170 169 182 185 184 189 198 192 190 192 192 197 194 190 164 157 160 156 158 161 193 219 247
198 192 205 138 167 117 113 135 146 116 133 93 92 114 138 150 156 146 146 192 204 166 167 162 162 173 181 174 171 178 188 181 185 200 195 192 205 174 161 198 175 165 164 170 166 180 211 220 237
185 253 128 119 127 122 141 171 161 124 125 134 136 138 147 156 164 154 147 212 193 180 171 167 153 185 172 154 169 172 173 190 197 199 196 196 175 191 147 206 180 164 179 181 172 199 228 203 301
188 226 125 125 128 121 158 163 103 131 136 134 136 143 153 165 171 162 182 196 174 143 136 138 126 134 148 150 165 163 189 200 192 196 184 181 177 163 137 148 196 166 182 200 189 200 214 118 355
266 292 11 105 133 131 109 41 105 114 125 130 135 148 162 168 176 170 183 181 149 163 158 171 145 153 155 158 157 166 209 193 191 182 196 164 176 127 121 248 161 186 245 245 208 254 262 199 201
159 90 308 326 73 78 83 58 116 128 130 135 146 159 169 178 179 174 195 195 186 191 185 168 171 176 178 163 163 174 158 193 170 209 205 161 140 137 148 183 182 196 208 282 121 65 281 252 116
61 94 186 300 282 125 123 29 105 141 139 145 156 166 174 180 180 189 199 200 197 199 198 167 176 184 178 171 153 170 160 166 153 197 197 149 135 118 150 169 191 212 192 281 125 169 226 66 27
103 81 139 359 272 289 90 325 267 155 148 153 161 172 178 186 184 194 206 206 204 195 200 167 174 162 152 147 153 173 203 173 146 173 172 155 149 136 133 186 216 197 187 263 169 186 173 129 102
63 77 46 333 271 252 84 231 195 167 164 161 167 177 180 186 190 202 206 207 195 195 177 180 165 165 148 147 158 200 207 223 164 163 172 169 158 155 150 184 229 197 172 258 188 200 139 127 273
190 119 95 285 275 185 207 228 265 203 167 168 172 179 182 186 196 199 205 188 184 176 166 167 158 159 152 150 156 199 242 236 181 182 176 138 106 169 176 185 198 197 190 259 175 164 129 162 223
205 143 170 231 259 213 213 71 47 12 9 175 175 182 186 191 195 197 198 193 186 174 164 164 146 158 149 157 158 166 195 201 185 197 146 159 166 183 183 190 166 195 214 202 186 135 164 272 229
351 307 218 207 256 120 97 101 170 169 183 192 203 186 189 188 193 192 196 191 178 163 169 166 152 159 161 162 166 159 161 102 120 55 358 304 184 177 183 174 176 192 205 210 210 163 149 243 183
287 278 307 245 289 34 116 121 279 200 216 157 210 197 187 188 191 192 185 180 175 164 165 162 154 163 163 162 155 129 90 78 122 93 74 66 343 245 177 172 172 189 189 195 200 185 183 189 243
284 328 339 339 26 227 159 106 241 280 294 295 216 189 190 184 186 183 179 175 174 164 161 160 156 163 162 162 171 171 168 174 199 152 193 39 301 282 191 174 182 186 192 188 198 206 192 144 228
282 289 302 300 289 333 303 96 292 329 265 269 275 181 187 185 183 178 177 176 171 158 160 165 156 163 166 163 171 174 170 160 170 117 173 180 237 245 212 183 182 180 191 195 199 187 207 196 178
280 289 280 258 185 18 270 117 279 202 227 272 269 270 183 176 180 174 174 170 166 161 158 163 155 168 169 172 169 169 171 155 152 193 178 199 210 190 216 190 188 187 201 197 192 192 191 203 211
337 320 326 1 2 182 151 83 218 209 236 245 202 176 203 176 172 166 172 172 173 162 163 165 164 168 173 177 177 186 197 159 180 188 195 189 199 187 195 187 185 191 200 213 181 179 177 189 203
305 38 130 321 321 254 170 174 275 149 185 330 114 31 67 170 172 169 172 169 172 162 166 164 169 169 170 175 188 187 189 194 178 189 191 200 197 167 180 204 195 186 193 204 175 175 189 192 206
304 13 256 324 312 74 79 23 45 159 208 95 55 40 356 312 185 170 168 162 167 154 164 160 169 176 180 176 180 191 196 192 201 187 195 198 152 162 211 205 193 197 190 188 184 188 199 209 207
198 269 358 0 7 339 20 44 166 71 72 81 54 15 322 322 175 155 117 85 156 140 154 152 169 175 182 188 193 185 191 195 198 203 212 207 170 180 186 194 180 186 208 187 178 194 215 201 209
322 2 354 90 114 201 117 285 109 96 79 87 65 359 7 27 58 90 72 44 11 344 162 160 172 179 181 181 188 201 195 191 188 207 215 215 174 173 181 182 183 180 194 197 184 193 209 202 207
58 327 0 114 299 282 140 252 95 31 51 104 101 46 24 88 86 99 81 37 351 307 36 56 186 177 181 185 177 187 186 185 188 207 220 214 195 172 176 183 188 188 192 190 190 198 207 198 201